| time (UTC) | temp F | wind direction | speed MPH | gust MPH | rain 1hr in | rain 24hr in | rain mn in | humidity % | barometer mb |
| 20260510174136 | 63 | 316 | 0.0 | 2.0 | 0.00 | 0.00 | 0.00 | 38 | |
| 20260510173631 | 63 | 293 | 1.0 | 3.0 | 0.00 | 0.00 | 0.00 | 38 | |
| 20260510173127 | 63 | 321 | 0.0 | 1.0 | 0.00 | 0.00 | 0.00 | 40 | |
| 20260510172623 | 63 | 308 | 0.0 | 1.0 | 0.00 | 0.00 | 0.00 | 37 | |
| 20260510172120 | 63 | 276 | 3.0 | 3.0 | 0.00 | 0.00 | 0.00 | 35 | |
| 20260510171616 | 63 | 292 | 3.0 | 3.0 | 0.00 | 0.00 | 0.00 | 34 | |
| 20260510171114 | 63 | 329 | 0.0 | 0.0 | 0.00 | 0.00 | 0.00 | 38 | |
| 20260510170610 | 64 | 321 | 3.0 | 6.0 | 0.00 | 0.00 | 0.00 | 35 | |
| 20260510170107 | 64 | 330 | 0.0 | 2.0 | 0.00 | 0.00 | 0.00 | 40 | |
| 20260510165603 | 63 | 314 | 0.0 | 3.0 | 0.00 | 0.00 | 0.00 | 35 | |
| 20260510165058 | 62 | 305 | 0.0 | 1.0 | 0.00 | 0.00 | 0.00 | 38 | |
| 20260510164556 | 62 | 256 | 1.0 | 5.0 | 0.00 | 0.00 | 0.00 | 36 | |
| 20260510164052 | 62 | 294 | 3.0 | 6.0 | 0.00 | 0.00 | 0.00 | 36 | |
| 20260510163547 | 62 | 318 | 1.0 | 2.0 | 0.00 | 0.00 | 0.00 | 39 | |
| 20260510163044 | 61 | 303 | 2.0 | 2.0 | 0.00 | 0.00 | 0.00 | 38 | |
| 20260510162539 | 61 | 309 | 2.0 | 3.0 | 0.00 | 0.00 | 0.00 | 39 | |
| 20260510162036 | 61 | 326 | 3.0 | 3.0 | 0.00 | 0.00 | 0.00 | 42 | |
| 20260510161532 | 61 | 306 | 1.0 | 2.0 | 0.00 | 0.00 | 0.00 | 39 | |
| 20260510161029 | 61 | 282 | 3.0 | 7.0 | 0.00 | 0.00 | 0.00 | 38 | |
| 20260510160526 | 61 | 321 | 1.0 | 3.0 | 0.00 | 0.00 | 0.00 | 39 | |
| 20260510160026 | 61 | 298 | 3.0 | 3.0 | 0.00 | 0.00 | 0.00 | 39 | |
| 20260510155522 | 60 | 310 | 0.0 | 1.0 | 0.00 | 0.00 | 0.00 | 40 | |
| 20260510155019 | 60 | 289 | 2.0 | 5.0 | 0.00 | 0.00 | 0.00 | 43 | |
| 20260510154515 | 60 | 317 | 0.0 | 3.0 | 0.00 | 0.00 | 0.00 | 39 | |
| 20260510154014 | 60 | 351 | 3.0 | 3.0 | 0.00 | 0.00 | 0.00 | 40 | |
| 20260510153504 | 60 | 291 | 2.0 | 3.0 | 0.00 | 0.00 | 0.00 | 38 | |
| 20260510153002 | 61 | 314 | 2.0 | 6.0 | 0.00 | 0.00 | 0.00 | 38 | |
| 20260510152458 | 60 | 342 | 0.0 | 2.0 | 0.00 | 0.00 | 0.00 | 43 | |
| 20260510151955 | 60 | 321 | 0.0 | 3.0 | 0.00 | 0.00 | 0.00 | 40 | |
| 20260510151452 | 60 | 291 | 2.0 | 5.0 | 0.00 | 0.00 | 0.00 | 39 | |
| 20260510150948 | 59 | 306 | 2.0 | 6.0 | 0.00 | 0.00 | 0.00 | 39 | |
| 20260510150444 | 59 | 328 | 0.0 | 2.0 | 0.00 | 0.00 | 0.00 | 44 | |
| 20260510145940 | 59 | 339 | 1.0 | 5.0 | 0.00 | 0.00 | 0.00 | 42 | |
| 20260510145437 | 59 | 342 | 4.0 | 5.0 | 0.00 | 0.00 | 0.00 | 40 | |
| 20260510144933 | 59 | 316 | 2.0 | 3.0 | 0.00 | 0.00 | 0.00 | 43 | |
| 20260510144430 | 59 | 323 | 0.0 | 2.0 | 0.00 | 0.00 | 0.00 | 46 | |
| 20260510143925 | 58 | 331 | 1.0 | 3.0 | 0.00 | 0.00 | 0.00 | 43 | |
| 20260510143421 | 57 | 344 | 2.0 | 2.0 | 0.00 | 0.00 | 0.00 | 45 | |
| 20260510142918 | 57 | 316 | 0.0 | 2.0 | 0.00 | 0.00 | 0.00 | 45 | |
| 20260510142415 | 57 | 327 | 0.0 | 1.0 | 0.00 | 0.00 | 0.00 | 48 | |
| 20260510141911 | 57 | 311 | 1.0 | 2.0 | 0.00 | 0.00 | 0.00 | 46 | |
| 20260510141409 | 57 | 294 | 1.0 | 6.0 | 0.00 | 0.00 | 0.00 | 44 | |
| 20260510140906 | 57 | 312 | 2.0 | 2.0 | 0.00 | 0.00 | 0.00 | 45 | |
| 20260510140402 | 57 | 317 | 1.0 | 2.0 | 0.00 | 0.00 | 0.00 | 46 | |
| 20260510135901 | 57 | 313 | 2.0 | 3.0 | 0.00 | 0.00 | 0.00 | 43 | |
| 20260510135357 | 57 | 290 | 4.0 | 6.0 | 0.00 | 0.00 | 0.00 | 42 | |
| 20260510134855 | 57 | 307 | 1.0 | 3.0 | 0.00 | 0.00 | 0.00 | 45 | |
| 20260510134351 | 56 | 292 | 2.0 | 5.0 | 0.00 | 0.00 | 0.00 | 43 | |
| 20260510133847 | 55 | 315 | 0.0 | 3.0 | 0.00 | 0.00 | 0.00 | 45 | |
| 20260510133344 | 55 | 318 | 1.0 | 3.0 | 0.00 | 0.00 | 0.00 | 46 | |
| 20260510132839 | 55 | 308 | 2.0 | 3.0 | 0.00 | 0.00 | 0.00 | 44 | |
| 20260510132338 | 55 | 307 | 2.0 | 2.0 | 0.00 | 0.00 | 0.00 | 45 | |
| 20260510131834 | 55 | 299 | 1.0 | 2.0 | 0.00 | 0.00 | 0.00 | 45 | |
| 20260510131332 | 55 | 329 | 2.0 | 3.0 | 0.00 | 0.00 | 0.00 | 48 | |
| 20260510130828 | 55 | 307 | 1.0 | 2.0 | 0.00 | 0.00 | 0.00 | 46 | |
| 20260510130325 | 55 | 292 | 3.0 | 3.0 | 0.00 | 0.00 | 0.00 | 44 | |
| 20260510125821 | 55 | 285 | 2.0 | 2.0 | 0.00 | 0.00 | 0.00 | 45 | |
| 20260510125318 | 55 | 334 | 2.0 | 3.0 | 0.00 | 0.00 | 0.00 | 44 | |
| 20260510124815 | 55 | 270 | 2.0 | 5.0 | 0.00 | 0.00 | 0.00 | 44 | |
| 20260510124312 | 55 | 317 | 1.0 | 3.0 | 0.00 | 0.00 | 0.00 | 45 | |
| 20260510123807 | 55 | 313 | 1.0 | 3.0 | 0.00 | 0.00 | 0.00 | 44 | |
| 20260510123303 | 55 | 310 | 1.0 | 2.0 | 0.00 | 0.00 | 0.00 | 44 | |
| 20260510122759 | 55 | 309 | 1.0 | 2.0 | 0.00 | 0.00 | 0.00 | 44 | |
| 20260510122256 | 55 | 287 | 2.0 | 3.0 | 0.00 | 0.00 | 0.00 | 43 | |
| 20260510121752 | 55 | 319 | 1.0 | 5.0 | 0.00 | 0.00 | 0.00 | 44 | |
| 20260510121250 | 55 | 310 | 2.0 | 5.0 | 0.00 | 0.00 | 0.00 | 43 | |
| 20260510120747 | 55 | 317 | 1.0 | 3.0 | 0.00 | 0.00 | 0.00 | 44 | |
| 20260510120243 | 55 | 290 | 1.0 | 2.0 | 0.00 | 0.00 | 0.00 | 44 | |
| 20260510115739 | 55 | 290 | 4.0 | 6.0 | 0.00 | 0.00 | 0.00 | 44 | |
| 20260510115238 | 55 | 316 | 0.0 | 1.0 | 0.00 | 0.00 | 0.00 | 46 | |
| 20260510114732 | 55 | 309 | 2.0 | 3.0 | 0.00 | 0.00 | 0.00 | 44 | |
| 20260510114230 | 55 | 290 | 2.0 | 8.0 | 0.00 | 0.00 | 0.00 | 43 | |
| 20260510113725 | 55 | 305 | 1.0 | 5.0 | 0.00 | 0.00 | 0.00 | 44 | |
| 20260510113223 | 55 | 304 | 1.0 | 5.0 | 0.00 | 0.00 | 0.00 | 45 | |
| 20260510112718 | 55 | 287 | 1.0 | 3.0 | 0.00 | 0.00 | 0.00 | 45 | |
| 20260510112216 | 56 | 282 | 3.0 | 5.0 | 0.00 | 0.00 | 0.00 | 43 | |
| 20260510111711 | 56 | 308 | 1.0 | 5.0 | 0.00 | 0.00 | 0.00 | 44 | |
| 20260510111209 | 56 | 304 | 2.0 | 3.0 | 0.00 | 0.00 | 0.00 | 44 | |
| 20260510110709 | 56 | 293 | 2.0 | 5.0 | 0.00 | 0.00 | 0.00 | 45 | |
| 20260510110207 | 56 | 313 | 2.0 | 3.0 | 0.00 | 0.00 | 0.00 | 45 | |
| 20260510105706 | 57 | 311 | 3.0 | 5.0 | 0.00 | 0.00 | 0.00 | 45 | |
| 20260510105201 | 56 | 316 | 1.0 | 3.0 | 0.00 | 0.00 | 0.00 | 47 | |
| 20260510104658 | 57 | 310 | 2.0 | 2.0 | 0.00 | 0.00 | 0.00 | 47 | |
| 20260510104155 | 57 | 302 | 0.0 | 1.0 | 0.00 | 0.00 | 0.00 | 50 | |
| 20260510103652 | 57 | 311 | 1.0 | 2.0 | 0.00 | 0.00 | 0.00 | 48 | |
| 20260510103148 | 57 | 303 | 2.0 | 5.0 | 0.00 | 0.00 | 0.00 | 46 | |
| 20260510102648 | 57 | 304 | 1.0 | 2.0 | 0.00 | 0.00 | 0.00 | 46 | |
| 20260510102145 | 57 | 312 | 0.0 | 3.0 | 0.00 | 0.00 | 0.00 | 46 | |
| 20260510101642 | 57 | 269 | 1.0 | 3.0 | 0.00 | 0.00 | 0.00 | 45 | |
| 20260510101141 | 58 | 260 | 1.0 | 2.0 | 0.00 | 0.00 | 0.00 | 44 | |
| 20260510100636 | 58 | 299 | 1.0 | 2.0 | 0.00 | 0.00 | 0.00 | 43 | |
| 20260510100134 | 58 | 268 | 1.0 | 6.0 | 0.00 | 0.00 | 0.00 | 44 | |
| 20260510095629 | 58 | 277 | 1.0 | 2.0 | 0.00 | 0.00 | 0.00 | 46 | |
| 20260510095125 | 58 | 310 | 2.0 | 5.0 | 0.00 | 0.00 | 0.00 | 46 | |
| 20260510094623 | 58 | 298 | 3.0 | 5.0 | 0.00 | 0.00 | 0.00 | 46 | |
| 20260510094119 | 58 | 295 | 0.0 | 2.0 | 0.00 | 0.00 | 0.00 | 46 | |
| 20260510093616 | 59 | 304 | 2.0 | 3.0 | 0.00 | 0.00 | 0.00 | 45 | |
| 20260510093113 | 59 | 289 | 2.0 | 3.0 | 0.00 | 0.00 | 0.00 | 47 | |
| 20260510092609 | 59 | 302 | 1.0 | 8.0 | 0.00 | 0.00 | 0.00 | 46 | |
| 20260510092109 | 59 | 318 | 1.0 | 2.0 | 0.00 | 0.00 | 0.00 | 49 | |
| 20260510091606 | 59 | 280 | 3.0 | 3.0 | 0.00 | 0.00 | 0.00 | 49 | |
| 20260510091102 | 59 | 324 | 1.0 | 3.0 | 0.00 | 0.00 | 0.00 | 50 | |
| 20260510090559 | 59 | 302 | 3.0 | 5.0 | 0.00 | 0.00 | 0.00 | 50 | |
| 20260510090055 | 59 | 310 | 2.0 | 3.0 | 0.00 | 0.00 | 0.00 | 53 | |
| 20260510085550 | 59 | 313 | 1.0 | 3.0 | 0.00 | 0.00 | 0.00 | 53 | |
| 20260510085046 | 59 | 318 | 2.0 | 3.0 | 0.00 | 0.00 | 0.00 | 53 | |
| 20260510084543 | 59 | 310 | 1.0 | 5.0 | 0.00 | 0.00 | 0.00 | 55 | |
| 20260510084039 | 60 | 285 | 2.0 | 6.0 | 0.00 | 0.00 | 0.00 | 55 | |
| 20260510083536 | 60 | 294 | 3.0 | 5.0 | 0.00 | 0.00 | 0.00 | 57 | |
| 20260510083032 | 60 | 258 | 1.0 | 3.0 | 0.00 | 0.00 | 0.00 | 58 | |
| 20260510082529 | 60 | 257 | 2.0 | 5.0 | 0.00 | 0.00 | 0.00 | 59 | |
| 20260510082025 | 60 | 295 | 2.0 | 3.0 | 0.00 | 0.00 | 0.00 | 59 | |
| 20260510081520 | 60 | 314 | 0.0 | 3.0 | 0.00 | 0.00 | 0.00 | 59 | |
| 20260510081016 | 60 | 287 | 1.0 | 2.0 | 0.00 | 0.00 | 0.00 | 59 | |
| 20260510080515 | 60 | 302 | 1.0 | 3.0 | 0.00 | 0.00 | 0.00 | 60 | |
| 20260510080012 | 61 | 319 | 1.0 | 3.0 | 0.00 | 0.00 | 0.00 | 59 | |
| 20260510075510 | 61 | 304 | 1.0 | 3.0 | 0.00 | 0.00 | 0.00 | 60 | |
| 20260510075006 | 61 | 302 | 1.0 | 2.0 | 0.00 | 0.00 | 0.00 | 60 | |
| 20260510074504 | 62 | 260 | 1.0 | 3.0 | 0.00 | 0.00 | 0.00 | 59 | |
| 20260510073959 | 62 | 311 | 0.0 | 0.0 | 0.00 | 0.00 | 0.00 | 57 | |
| 20260510073455 | 62 | 315 | 0.0 | 1.0 | 0.00 | 0.00 | 0.00 | 56 | |
| 20260510072952 | 62 | 309 | 0.0 | 1.0 | 0.00 | 0.00 | 0.00 | 55 | |
| 20260510072449 | 62 | 315 | 0.0 | 1.0 | 0.00 | 0.00 | 0.00 | 57 | |
| 20260510071944 | 62 | 317 | 0.0 | 2.0 | 0.00 | 0.00 | 0.00 | 56 | |
| 20260510071441 | 62 | 318 | 1.0 | 2.0 | 0.00 | 0.00 | 0.00 | 57 | |
| 20260510070939 | 62 | 318 | 0.0 | 0.0 | 0.00 | 0.00 | 0.00 | 58 | |
| 20260510070436 | 61 | 313 | 0.0 | 0.0 | 0.00 | 0.00 | 0.00 | 58 | |
| 20260510065932 | 62 | 318 | 0.0 | 0.0 | 0.00 | 0.00 | 0.00 | 59 | |
| 20260510065429 | 62 | 319 | 0.0 | 0.0 | 0.00 | 0.00 | 0.00 | 58 | |
| 20260510064924 | 62 | 319 | 0.0 | 0.0 | 0.00 | 0.00 | 0.00 | 58 | |
| 20260510064422 | 63 | 318 | 0.0 | 0.0 | 0.00 | 0.00 | 0.00 | 56 | |
| 20260510063919 | 63 | 316 | 0.0 | 0.0 | 0.00 | 0.00 | 0.00 | 55 | |
| 20260510063415 | 63 | 318 | 0.0 | 0.0 | 0.00 | 0.00 | 0.00 | 55 | |
| 20260510062913 | 63 | 318 | 0.0 | 1.0 | 0.00 | 0.00 | 0.00 | 55 | |
| 20260510062408 | 63 | 315 | 0.0 | 0.0 | 0.00 | 0.00 | 0.00 | 55 | |
| 20260510061904 | 64 | 329 | 0.0 | 0.0 | 0.00 | 0.00 | 0.00 | 54 | |
| 20260510061400 | 64 | 332 | 1.0 | 2.0 | 0.00 | 0.00 | 0.00 | 53 | |
| 20260510060856 | 64 | 324 | 1.0 | 2.0 | 0.00 | 0.00 | 0.00 | 54 | |
| 20260510060353 | 65 | 308 | 0.0 | 1.0 | 0.00 | 0.00 | 0.00 | 53 | |
| 20260510055850 | 65 | 336 | 1.0 | 1.0 | 0.00 | 0.00 | 0.00 | 51 | |
| 20260510055350 | 65 | 319 | 0.0 | 1.0 | 0.00 | 0.00 | 0.00 | 52 | |
| 20260510054848 | 65 | 271 | 1.0 | 3.0 | 0.00 | 0.00 | 0.00 | 51 | |
| 20260510054344 | 66 | 323 | 0.0 | 1.0 | 0.00 | 0.00 | 0.00 | 51 | |
| 20260510053839 | 66 | 332 | 1.0 | 2.0 | 0.00 | 0.00 | 0.00 | 50 | |
| 20260510053335 | 66 | 328 | 1.0 | 2.0 | 0.00 | 0.00 | 0.00 | 51 | |
| 20260510052831 | 66 | 337 | 2.0 | 3.0 | 0.00 | 0.00 | 0.00 | 49 | |
| 20260510052327 | 66 | 316 | 0.0 | 2.0 | 0.00 | 0.00 | 0.00 | 51 | |
| 20260510051824 | 66 | 326 | 1.0 | 2.0 | 0.00 | 0.00 | 0.00 | 51 | |
| 20260510051321 | 66 | 330 | 0.0 | 1.0 | 0.00 | 0.00 | 0.00 | 52 | |
| 20260510050818 | 66 | 333 | 0.0 | 0.0 | 0.00 | 0.00 | 0.00 | 52 | |
| 20260510050314 | 66 | 333 | 1.0 | 3.0 | 0.00 | 0.00 | 0.00 | 49 | |
| 20260510045811 | 66 | 317 | 0.0 | 1.0 | 0.00 | 0.00 | 0.00 | 52 | |
| 20260510045308 | 66 | 317 | 1.0 | 2.0 | 0.00 | 0.00 | 0.00 | 53 | |
| 20260510044805 | 67 | 300 | 0.0 | 2.0 | 0.00 | 0.00 | 0.00 | 52 | |
| 20260510044302 | 67 | 294 | 1.0 | 5.0 | 0.00 | 0.00 | 0.00 | 54 | |
| 20260510043758 | 66 | 312 | 1.0 | 3.0 | 0.00 | 0.00 | 0.00 | 56 | |
| 20260510043254 | 66 | 303 | 2.0 | 3.0 | 0.00 | 0.00 | 0.00 | 57 | |
| 20260510042752 | 67 | 294 | 1.0 | 2.0 | 0.00 | 0.00 | 0.00 | 56 | |
| 20260510042247 | 67 | 313 | 0.0 | 2.0 | 0.00 | 0.00 | 0.00 | 57 | |
| 20260510041744 | 67 | 305 | 1.0 | 2.0 | 0.00 | 0.00 | 0.00 | 57 | |
| 20260510041242 | 66 | 309 | 0.0 | 0.0 | 0.00 | 0.00 | 0.00 | 57 | |
| 20260510040739 | 67 | 315 | 0.0 | 0.0 | 0.00 | 0.00 | 0.00 | 57 | |
| 20260510040236 | 67 | 314 | 0.0 | 0.0 | 0.00 | 0.00 | 0.00 | 57 | |
| 20260510035731 | 67 | 313 | 0.0 | 0.0 | 0.00 | 0.00 | 0.00 | 57 | |
| 20260510035227 | 67 | 324 | 0.0 | 0.0 | 0.00 | 0.00 | 0.00 | 58 | |
| 20260510034723 | 67 | 324 | 0.0 | 0.0 | 0.00 | 0.00 | 0.00 | 57 | |
| 20260510034221 | 67 | 324 | 0.0 | 0.0 | 0.00 | 0.00 | 0.00 | 57 | |
| 20260510033717 | 67 | 330 | 1.0 | 2.0 | 0.00 | 0.00 | 0.00 | 55 | |
| 20260510033215 | 67 | 325 | 0.0 | 0.0 | 0.00 | 0.00 | 0.00 | 56 | |
| 20260510032711 | 67 | 322 | 0.0 | 0.0 | 0.00 | 0.00 | 0.00 | 57 | |
| 20260510032207 | 67 | 320 | 0.0 | 0.0 | 0.00 | 0.00 | 0.00 | 56 | |
| 20260510031701 | 66 | 299 | 0.0 | 1.0 | 0.00 | 0.00 | 0.00 | 60 | |
| 20260510031158 | 66 | 325 | 0.0 | 0.0 | 0.00 | 0.00 | 0.00 | 61 | |
| 20260510030652 | 67 | 322 | 0.0 | 0.0 | 0.00 | 0.00 | 0.00 | 56 | |
| 20260510030150 | 67 | 334 | 0.0 | 0.0 | 0.00 | 0.00 | 0.00 | 55 | |
| 20260510025647 | 67 | 326 | 0.0 | 0.0 | 0.00 | 0.00 | 0.00 | 55 | |
| 20260510025144 | 68 | 324 | 0.0 | 0.0 | 0.00 | 0.00 | 0.00 | 54 | |
| 20260510024641 | 68 | 318 | 0.0 | 0.0 | 0.00 | 0.00 | 0.00 | 53 | |
| 20260510024138 | 68 | 318 | 0.0 | 1.0 | 0.00 | 0.00 | 0.00 | 53 | |
| 20260510023634 | 68 | 316 | 0.0 | 0.0 | 0.00 | 0.00 | 0.00 | 54 | |
| 20260510023131 | 68 | 317 | 0.0 | 0.0 | 0.00 | 0.00 | 0.00 | 54 | |
| 20260510022625 | 68 | 317 | 0.0 | 0.0 | 0.00 | 0.00 | 0.00 | 53 | |
| 20260510022120 | 69 | 317 | 0.0 | 0.0 | 0.00 | 0.00 | 0.00 | 51 | |
| 20260510021616 | 69 | 316 | 0.0 | 0.0 | 0.00 | 0.00 | 0.00 | 51 | |
| 20260510021115 | 69 | 318 | 0.0 | 0.0 | 0.00 | 0.00 | 0.00 | 51 | |
| 20260510020614 | 69 | 307 | 0.0 | 1.0 | 0.00 | 0.00 | 0.00 | 49 | |
| 20260510020109 | 70 | 271 | 0.0 | 1.0 | 0.00 | 0.00 | 0.00 | 49 | |
| 20260510015606 | 70 | 279 | 2.0 | 3.0 | 0.00 | 0.00 | 0.00 | 48 | |
| 20260510015102 | 70 | 235 | 3.0 | 6.0 | 0.00 | 0.00 | 0.00 | 48 | |
| 20260510014558 | 70 | 301 | 0.0 | 3.0 | 0.00 | 0.00 | 0.00 | 48 | |
| 20260510014055 | 71 | 299 | 3.0 | 3.0 | 0.00 | 0.00 | 0.00 | 48 | |
| 20260510013550 | 71 | 268 | 3.0 | 3.0 | 0.00 | 0.00 | 0.00 | 48 | |
| 20260510013046 | 71 | 309 | 1.0 | 2.0 | 0.00 | 0.00 | 0.00 | 48 | |
| 20260510012539 | 71 | 282 | 1.0 | 2.0 | 0.00 | 0.00 | 0.00 | 48 | |
| 20260510012037 | 71 | 300 | 1.0 | 6.0 | 0.00 | 0.00 | 0.00 | 47 | |
| 20260510011536 | 71 | 313 | 0.0 | 1.0 | 0.00 | 0.00 | 0.00 | 49 | |
| 20260510011032 | 71 | 308 | 1.0 | 2.0 | 0.00 | 0.00 | 0.00 | 48 | |
| 20260510010529 | 71 | 315 | 0.0 | 0.0 | 0.00 | 0.00 | 0.00 | 49 | |
| 20260510010026 | 72 | 315 | 0.0 | 0.0 | 0.00 | 0.00 | 0.00 | 48 | |
| 20260510005521 | 72 | 318 | 0.0 | 0.0 | 0.00 | 0.00 | 0.00 | 48 | |
| 20260510005020 | 72 | 321 | 1.0 | 2.0 | 0.00 | 0.00 | 0.00 | 46 | |
| 20260510004517 | 73 | 318 | 1.0 | 2.0 | 0.00 | 0.00 | 0.00 | 46 | |
| 20260510004015 | 73 | 309 | 2.0 | 2.0 | 0.00 | 0.00 | 0.00 | 46 | |
| 20260510003511 | 73 | 297 | 1.0 | 6.0 | 0.00 | 0.00 | 0.00 | 45 | |
| 20260510003006 | 74 | 315 | 0.0 | 1.0 | 0.00 | 0.00 | 0.00 | 45 | |
| 20260510002503 | 74 | 296 | 3.0 | 3.0 | 0.00 | 0.00 | 0.00 | 45 | |
| 20260510001959 | 75 | 294 | 1.0 | 2.0 | 0.00 | 0.00 | 0.00 | 45 | |
| 20260510001457 | 75 | 289 | 3.0 | 3.0 | 0.00 | 0.00 | 0.00 | 43 | |
| 20260510000954 | 75 | 303 | 0.0 | 2.0 | 0.00 | 0.00 | 0.00 | 44 | |
| 20260510000450 | 75 | 284 | 2.0 | 6.0 | 0.00 | 0.00 | 0.00 | 42 | |
| 20260509235947 | 75 | 278 | 4.0 | 5.0 | 0.00 | 0.00 | 0.00 | 41 | |
| 20260509235443 | 76 | 325 | 1.0 | 2.0 | 0.00 | 0.00 | 0.00 | 42 | |
| 20260509234940 | 76 | 227 | 3.0 | 6.0 | 0.00 | 0.00 | 0.00 | 40 | |
| 20260509234437 | 77 | 310 | 4.0 | 7.0 | 0.00 | 0.00 | 0.00 | 40 | |
| 20260509233935 | 77 | 251 | 3.0 | 5.0 | 0.00 | 0.00 | 0.00 | 39 | |
| 20260509233432 | 77 | 283 | 1.0 | 3.0 | 0.00 | 0.00 | 0.00 | 39 | |
| 20260509232928 | 77 | 90 | 1.0 | 3.0 | 0.00 | 0.00 | 0.00 | 39 | |
| 20260509232426 | 78 | 186 | 2.0 | 5.0 | 0.00 | 0.00 | 0.00 | 38 | |
| 20260509231921 | 77 | 181 | 3.0 | 5.0 | 0.00 | 0.00 | 0.00 | 38 | |
| 20260509231418 | 77 | 310 | 0.0 | 1.0 | 0.00 | 0.00 | 0.00 | 39 | |
| 20260509230917 | 77 | 308 | 0.0 | 2.0 | 0.00 | 0.00 | 0.00 | 40 | |
| 20260509230413 | 78 | 231 | 0.0 | 3.0 | 0.00 | 0.00 | 0.00 | 40 | |
| 20260509225909 | 78 | 310 | 1.0 | 2.0 | 0.00 | 0.00 | 0.00 | 38 | |
| 20260509225406 | 78 | 314 | 0.0 | 2.0 | 0.00 | 0.00 | 0.00 | 37 | |
| 20260509224901 | 78 | 283 | 0.0 | 1.0 | 0.00 | 0.00 | 0.00 | 38 | |
| 20260509224357 | 78 | 171 | 3.0 | 3.0 | 0.00 | 0.00 | 0.00 | 36 | |
| 20260509223855 | 79 | 269 | 2.0 | 2.0 | 0.00 | 0.00 | 0.00 | 37 | |
| 20260509223351 | 79 | 84 | 1.0 | 5.0 | 0.00 | 0.00 | 0.00 | 37 | |
| 20260509222849 | 79 | 316 | 0.0 | 0.0 | 0.00 | 0.00 | 0.00 | 38 | |
| 20260509222349 | 79 | 180 | 3.0 | 3.0 | 0.00 | 0.00 | 0.00 | 36 | |
| 20260509221844 | 80 | 279 | 1.0 | 3.0 | 0.00 | 0.00 | 0.00 | 36 | |
| 20260509221342 | 80 | 356 | 1.0 | 3.0 | 0.00 | 0.00 | 0.00 | 35 | |
| 20260509220837 | 80 | 183 | 1.0 | 2.0 | 0.00 | 0.00 | 0.00 | 36 | |
| 20260509220333 | 80 | 154 | 3.0 | 3.0 | 0.00 | 0.00 | 0.00 | 35 | |
| 20260509215829 | 80 | 185 | 1.0 | 2.0 | 0.00 | 0.00 | 0.00 | 35 | |
| 20260509215326 | 80 | 306 | 0.0 | 5.0 | 0.00 | 0.00 | 0.00 | 36 | |
| 20260509214823 | 80 | 290 | 2.0 | 2.0 | 0.00 | 0.00 | 0.00 | 34 | |
| 20260509214320 | 80 | 232 | 3.0 | 6.0 | 0.00 | 0.00 | 0.00 | 34 | |
| 20260509213817 | 81 | 153 | 0.0 | 5.0 | 0.00 | 0.00 | 0.00 | 35 | |
| 20260509213312 | 82 | 143 | 2.0 | 5.0 | 0.00 | 0.00 | 0.00 | 35 | |
| 20260509212810 | 82 | 179 | 2.0 | 5.0 | 0.00 | 0.00 | 0.00 | 35 | |
| 20260509212307 | 81 | 189 | 0.0 | 2.0 | 0.00 | 0.00 | 0.00 | 37 | |
| 20260509211803 | 82 | 17 | 1.0 | 5.0 | 0.00 | 0.00 | 0.00 | 35 | |
| 20260509211259 | 82 | 335 | 0.0 | 2.0 | 0.00 | 0.00 | 0.00 | 38 | |
| 20260509210756 | 82 | 156 | 2.0 | 3.0 | 0.00 | 0.00 | 0.00 | 35 | |
| 20260509210254 | 82 | 292 | 2.0 | 6.0 | 0.00 | 0.00 | 0.00 | 35 | |
| 20260509205753 | 82 | 142 | 2.0 | 5.0 | 0.00 | 0.00 | 0.00 | 35 | |
| 20260509205248 | 81 | 189 | 2.0 | 5.0 | 0.00 | 0.00 | 0.00 | 35 | |
| 20260509204744 | 81 | 194 | 1.0 | 5.0 | 0.00 | 0.00 | 0.00 | 38 | |
| 20260509204241 | 82 | 311 | 3.0 | 6.0 | 0.00 | 0.00 | 0.00 | 36 | |
| 20260509203737 | 82 | 259 | 3.0 | 5.0 | 0.00 | 0.00 | 0.00 | 38 | |
| 20260509203235 | 82 | 309 | 0.0 | 6.0 | 0.00 | 0.00 | 0.00 | 36 | |
| 20260509202730 | 82 | 151 | 2.0 | 5.0 | 0.00 | 0.00 | 0.00 | 35 | |
| 20260509202227 | 82 | 308 | 2.0 | 3.0 | 0.00 | 0.00 | 0.00 | 35 | |
| 20260509201721 | 81 | 23 | 1.0 | 3.0 | 0.00 | 0.00 | 0.00 | 39 | |
| 20260509201218 | 82 | 315 | 2.0 | 5.0 | 0.00 | 0.00 | 0.00 | 39 | |
| 20260509200714 | 82 | 331 | 0.0 | 3.0 | 0.00 | 0.00 | 0.00 | 38 | |
| 20260509200209 | 83 | 310 | 1.0 | 5.0 | 0.00 | 0.00 | 0.00 | 39 | |
| 20260509195706 | 82 | 327 | 0.0 | 5.0 | 0.00 | 0.00 | 0.00 | 41 | |
| 20260509195201 | 81 | 165 | 3.0 | 5.0 | 0.00 | 0.00 | 0.00 | 37 | |
| 20260509194701 | 82 | 73 | 4.0 | 7.0 | 0.00 | 0.00 | 0.00 | 36 | |
| 20260509194158 | 82 | 295 | 2.0 | 3.0 | 0.00 | 0.00 | 0.00 | 38 | |
| 20260509193654 | 81 | 196 | 2.0 | 5.0 | 0.00 | 0.00 | 0.00 | 39 | |
| 20260509193150 | 81 | 246 | 3.0 | 5.0 | 0.00 | 0.00 | 0.00 | 38 | |
| 20260509192646 | 81 | 13 | 3.0 | 5.0 | 0.00 | 0.00 | 0.00 | 39 | |
| 20260509192141 | 81 | 143 | 2.0 | 5.0 | 0.00 | 0.00 | 0.00 | 42 | |
| 20260509191641 | 81 | 143 | 1.0 | 5.0 | 0.00 | 0.00 | 0.00 | 43 | |
| 20260509191138 | 80 | 76 | 3.0 | 3.0 | 0.00 | 0.00 | 0.00 | 38 | |
| 20260509190635 | 80 | 339 | 3.0 | 6.0 | 0.00 | 0.00 | 0.00 | 43 | |
| 20260509190132 | 80 | 135 | 2.0 | 3.0 | 0.00 | 0.00 | 0.00 | 42 | |
| 20260509185630 | 80 | 348 | 2.0 | 3.0 | 0.00 | 0.00 | 0.00 | 41 | |
| 20260509185125 | 80 | 343 | 1.0 | 2.0 | 0.00 | 0.00 | 0.00 | 45 | |
| 20260509184624 | 80 | 297 | 1.0 | 3.0 | 0.00 | 0.00 | 0.00 | 46 | |
| 20260509184120 | 79 | 344 | 2.0 | 6.0 | 0.00 | 0.00 | 0.00 | 43 | |
| 20260509183616 | 79 | 67 | 0.0 | 3.0 | 0.00 | 0.00 | 0.00 | 44 | |
| 20260509183112 | 80 | 49 | 2.0 | 3.0 | 0.00 | 0.00 | 0.00 | 44 | |
| 20260509182608 | 79 | 340 | 1.0 | 3.0 | 0.00 | 0.00 | 0.00 | 48 | |
| 20260509182105 | 79 | 158 | 3.0 | 5.0 | 0.00 | 0.00 | 0.00 | 43 | |
| 20260509181603 | 79 | 187 | 2.0 | 6.0 | 0.00 | 0.00 | 0.00 | 43 | |
| 20260509181100 | 78 | 303 | 1.0 | 2.0 | 0.00 | 0.00 | 0.00 | 50 | |
| 20260509180556 | 79 | 236 | 2.0 | 3.0 | 0.00 | 0.00 | 0.00 | 47 | |
| 20260509180054 | 78 | 44 | 3.0 | 3.0 | 0.00 | 0.00 | 0.00 | 42 | |
| 20260509175549 | 79 | 175 | 1.0 | 3.0 | 0.00 | 0.00 | 0.00 | 48 | |
| 20260509175046 | 78 | 329 | 0.0 | 0.0 | 0.00 | 0.00 | 0.00 | 52 | |
| 20260509174542 | 77 | 283 | 1.0 | 2.0 | 0.00 | 0.00 | 0.00 | 49 |